STARLINK-4265, 53011

Orbit data source: Space-Track

STARLINK-4265, 53011 is a payload satellite owned by SpaceX/Seattle (US) in LEO that was launched on Thu, 07 Jul 2022 UTC via an FALCON 9 launch vehicle from the Air Force Eastern Test Range (AFETR). Payload-class satellites include a variety of spacecraft equipped with specific instruments for various scientific and technological missions. These include communications satellites like Starlink; space stations such as the ISS; scientific satellites like the Hubble; Earth observation satellites from companies like Planet Labs, Umbra, and HawkEye 360; GPS; miniature CubeSats for education and research; and military/defense satellites.

Loading next visibility...
Identifier
53011, 2022-076AB
Orbit
LEO
Country
Flag of USUS
Related business
Manufacturer
SpaceX/Seattle
Mission
Operational Commercial Communications
Bus & Motor
STARLINK, Unknown motor
Mass
297 kg wet, ~275 kg dry
Launch date (UTC)
2022-07-07 (3 years ago)
Launch vehicle
FALCON 9
Launch site
Air Force Eastern Test Range (AFETR)
Object type
Payload
Rocket body
Debris
Shape & HBR
Box + 1 Pan, 10.1 m
Radar Cross Section
13.562 m², Large (>1 m²)

Expand to show TLE details & history
Last TLE update: 15 hours ago

TLE from 15 hours ago
0 STARLINK-4265
1 53011U 22076AB  25346.66190229 -.00000343  00000-0 -34945-5 0  9994
2 53011  53.2167 114.8019 0001084  78.3895 281.7219 15.08827907189840
Epoch: 2025-12-12T15:53Z
TLE epoch observation values (Epoch: 2025-12-12T15:53:08.357Z)
Latitude
-0.00002°
Longitude
154.91675°
Altitude
540.525 km
Speed
7.593 km/s
True Right ascension
07h 39m 12s
True Declination
0° 00' 00"
Sunlit
Object was in full shadow at epoch
Visualization orbit readout
Latitude
Unknown
Longitude
Unknown
Altitude
Unknown
Speed
Unknown
Apparent Right ascension
Unknown
Apparent Declination
Unknown
Sunlit
N/A
Visualization observer readout
Local Sidereal Time
05:26:19
Azimuth
Unknown
Elevation
Unknown
Doppler factor
Unknown
Orbital elements
Apogee altitude
540.775 km
Perigee altitude
539.275 km
Semi-major axis
6,918.162 km
Eccentricity
0.00011
Inclination
53.2167°
RAAN
114.8019°
Arg. of periapsis
78.3895°
True anomaly
281.70974°
Mean anomaly
281.7219°
Eccentric anomaly
281.71582°
Mean motion
3.77187 °/min
Orbital period
95.44 mins
BSTAR
-0.0000034945
Loading maneuver chart data...
Computing Atmospheric mass density...
Loading historical data...
Loading historical data...
Loading historical data...
Loading historical data...
Loading historical data...
Loading historical data...
Loading historical data...

Documentation

Showing up to 5 results
|